(36) Atalante
ephemeris date magn radius delta ra dec elong phase
Today18 Jul 202514.22.742 AU3.580 AU09h54m+18°51'29.5°10.5°
Opposition5 Apr 202613.43.391 AU2.397 AU12h44m-13°29'172.0°2.4°
(36) Atalante - 2025-07-18
astro.vanbuitenen.nl


 
-1 year
-1 month
-1 day
Now
+1 day
+1 month
+1 year

The interactive orbit chart above shows the body's path through the solar system and its position at the given date. Green and blue lines are shown perpendicular to the ecliptic plane: Green if the path is above the ecliptic plane, blue if it is below. (Left-click and drag to rotate the view; Right-click and drag to move the view; Use scroll wheel to zoom in our out.)

The orbital elements of Atalante are:

            e (Eccentricity)                : 0.3063778
            a (Semimajor axis)              : 2.7451725
            i (Inclination)                 : 18.37277
            Ω (Longitude of ascending node) : 358.16566
            ω (Argument of perihelion)      : 47.79748
            M (Mean anomaly)                : 56.17174
            Epoch                           : 2025 May 05

            L (Longitude of perihelion)     : 44.46831
            B (Latitude of perihelion)      : 13.50268
            P (Orbital period in years)     : 4.55            
        

The light curve chart below shows the estimated development of the minor planet's magnitude.


The all-sky chart below shows the path of the minor planet over the same period as the light curve. The current position is marked yellow.





The following chart shows the path of the minor planet in the next few days. The field of view is optimized for (~10x50) binoculars and finderscopes. A more printer-friendly version of the same chart can be found below.




Ephemerides:
Date       Time       RA (2000)    DEC (2000)    delta   radius  elong  phase   PA    magn
2025-07-18 00:00 UT   09 54 19.1   +18 51 55     3.580    2.742   29.5   10.5   100   14.2 
2025-07-18 23:23 UT   09 55 46.6   +18 41 01     3.590    2.745   28.9   10.3   100   14.2 
2025-07-19 00:00 UT   09 55 48.9   +18 40 43     3.590    2.745   28.9   10.3   100   14.2 
2025-07-20 00:00 UT   09 57 18.6   +18 29 31     3.599    2.748   28.4   10.1   100   14.2 
2025-07-21 00:00 UT   09 58 48.1   +18 18 19     3.609    2.751   27.8    9.9    99   14.2 
2025-07-22 00:00 UT   10 00 17.5   +18 07 06     3.618    2.754   27.3    9.7    99   14.2 
2025-07-23 00:00 UT   10 01 46.7   +17 55 53     3.627    2.758   26.7    9.5    99   14.2 
2025-07-24 00:00 UT   10 03 15.8   +17 44 40     3.636    2.761   26.2    9.3    99   14.2 
2025-07-25 00:00 UT   10 04 44.7   +17 33 26     3.645    2.764   25.6    9.1    99   14.2 
2025-07-26 00:00 UT   10 06 13.5   +17 22 12     3.653    2.767   25.1    8.9    99   14.2 
2025-07-27 00:00 UT   10 07 42.1   +17 10 57     3.662    2.770   24.5    8.7    99   14.2 
2025-07-28 00:00 UT   10 09 10.6   +16 59 43     3.671    2.773   23.9    8.5    99   14.2 
2025-07-29 00:00 UT   10 10 39.0   +16 48 28     3.679    2.776   23.4    8.3    99   14.2 
2025-07-30 00:00 UT   10 12 07.1   +16 37 13     3.687    2.780   22.8    8.1    99   14.2 
2025-07-31 00:00 UT   10 13 35.1   +16 25 58     3.695    2.783   22.3    7.9    98   14.2 
2025-08-01 00:00 UT   10 15 03.0   +16 14 42     3.703    2.786   21.7    7.7    98   14.2 
2025-08-02 00:00 UT   10 16 30.7   +16 03 27     3.711    2.789   21.2    7.5    98   14.2 
2025-08-03 00:00 UT   10 17 58.2   +15 52 11     3.719    2.792   20.6    7.4    98   14.2 
2025-08-04 00:00 UT   10 19 25.6   +15 40 55     3.726    2.795   20.1    7.2    98   14.2 
2025-08-05 00:00 UT   10 20 52.8   +15 29 40     3.734    2.798   19.5    7.0    97   14.2 
2025-08-06 00:00 UT   10 22 19.8   +15 18 24     3.741    2.801   18.9    6.8    97   14.2 
2025-08-07 00:00 UT   10 23 46.7   +15 07 08     3.749    2.805   18.4    6.6    97   14.2 
2025-08-08 00:00 UT   10 25 13.4   +14 55 52     3.756    2.808   17.8    6.4    97   14.2 


    Terminology:
            
    delta:  distance between minor planet and earth in AU
    radius: distance between minor planet and sun in AU
    magn:   magnitude (brightness) estimate    
    ra:     right ascension in hours (24h = 360deg)
    dec:    declination in degrees
    elong:  elongation in degrees (angle sun-earth-minor planet)    
    phase:  phase angle in degrees (angle sun-minor planet-earth)        
    AU:     Astronomical Unit (mean distance between earth and sun: 149597870.7 km
    

Orbital elements provided by the MPC (Minor Planet Center).
Calculations by a modified version of AAPlus, a C# implementation of the AA+ project by PJ Naughter from the algorithms presented in the book "Astronomical Algorithms" by Jean Meeus.
NGC2000 dso catalog and star labels from VizieR as provided by the Strasbourg astronomical Data Center.
Tycho2 catalog from the ESO archive.